FW6147 Weather Reports


time (UTC)temp
C
wind
direction
speed
KPH
gust
KPH
rain 1hr
cm
rain 24hr
cm
rain mn
cm
humidity
%
barometer
mb
20260902163105 27 41 3.2 9.7 0.00 0.00 0.00 49 1023.8
20260902162558 27 16 4.8 9.7 0.00 0.00 0.00 51 1023.8
20260902162053 27 1 4.8 9.7 0.00 0.00 0.00 50 1023.9
20260902161604 27 1 4.8 9.7 0.00 0.00 0.00 51 1023.9
20260902161055 27 46 3.2 8.0 0.00 0.00 0.00 52 1023.9
20260902160554 27 37 3.2 6.4 0.00 0.00 0.00 52 1023.9
20260902160058 26 52 1.6 9.7 0.00 0.00 0.00 53 1023.9
20260902155556 27 72 4.8 9.7 0.00 0.00 0.00 52 1024.0
20260902155054 26 91 4.8 14.5 0.00 0.00 0.00 54 1023.8
20260902154611 26 142 4.8 14.5 0.00 0.00 0.00 55 1023.9
20260902154056 26 101 6.4 14.5 0.00 0.00 0.00 55 1023.8
20260902153554 26 113 6.4 11.3 0.00 0.00 0.00 57 1024.0
20260902153100 26 110 6.4 12.9 0.00 0.00 0.00 57 1024.0
20260902152556 26 78 8.0 12.9 0.00 0.00 0.00 58 1023.9
20260902152057 26 109 8.0 12.9 0.00 0.00 0.00 61 1024.0
20260902151559 25 98 6.4 11.3 0.00 0.00 0.00 61 1023.9
20260902151053 25 101 4.8 11.3 0.00 0.00 0.00 61 1023.9
20260902150553 25 113 4.8 9.7 0.00 0.00 0.00 62 1023.9
20260902150105 25 120 4.8 9.7 0.00 0.00 0.00 62 1023.8
20260902145555 24 122 6.4 9.7 0.00 0.00 0.00 63 1023.8
20260902145052 24 112 6.4 9.7 0.00 0.00 0.00 64 1023.9
20260902144602 24 111 6.4 9.7 0.00 0.00 0.00 65 1023.8
20260902144055 23 95 4.8 9.7 0.00 0.00 0.00 66 1023.8
20260902143552 23 116 4.8 9.7 0.00 0.00 0.00 66 1023.8
20260902143102 23 130 1.6 6.4 0.00 0.00 0.00 69 1023.8
20260902142555 22 136 3.2 6.4 0.00 0.00 0.00 70 1023.8
20260902142056 22 139 3.2 9.7 0.00 0.00 0.00 72 1023.8
20260902141601 22 142 3.2 9.7 0.00 0.00 0.00 74 1023.8
20260902141055 21 148 4.8 8.0 0.00 0.00 0.00 76 1023.8
20260902140553 21 179 3.2 6.4 0.00 0.00 0.00 76 1023.7
20260902140105 21 196 1.6 6.4 0.00 0.00 0.00 79 1023.5
20260902135552 20 196 3.2 6.4 0.00 0.00 0.00 80 1023.5
20260902135055 20 196 1.6 4.8 0.00 0.00 0.00 81 1023.4
20260902134604 20 196 1.6 4.8 0.00 0.00 0.00 82 1023.4
20260902134054 20 196 0.0 0.0 0.00 0.00 0.00 83 1023.4
20260902133555 19 0 0.0 0.0 0.00 0.00 0.00 83 1023.4
20260902133058 18 0 0.0 1.6 0.00 0.00 0.00 84 1023.4
20260902132556 18 0 0.0 1.6 0.00 0.00 0.00 83 1023.4
20260902132056 18 0 0.0 1.6 0.00 0.00 0.00 83 1023.2
20260902131601 18 0 0.0 3.2 0.00 0.00 0.00 83 1023.2
20260902131057 18 0 0.0 3.2 0.00 0.00 0.00 83 1023.1
20260902130556 18 0 0.0 1.6 0.00 0.00 0.00 82 1023.1
20260902130105 18 0 0.0 1.6 0.00 0.00 0.00 82 1023.1
20260902125555 18 0 0.0 1.6 0.00 0.00 0.00 82 1023.1
20260902125055 19 0 0.0 4.8 0.00 0.00 0.00 81 1023.1
20260902124602 19 0 0.0 4.8 0.00 0.00 0.00 81 1023.0
20260902124054 19 196 0.0 4.8 0.00 0.00 0.00 81 1022.8
20260902123558 19 0 1.6 4.8 0.00 0.00 0.00 82 1022.8
20260902123107 19 0 0.0 4.8 0.00 0.00 0.00 82 1022.8
20260902122555 19 196 0.0 4.8 0.00 0.00 0.00 82 1022.7
20260902122055 19 196 1.6 4.8 0.00 0.00 0.00 82 1022.6
20260902121559 19 196 1.6 4.8 0.00 0.00 0.00 83 1022.6
20260902121055 19 196 0.0 3.2 0.00 0.00 0.00 82 1022.6
20260902120555 19 0 1.6 3.2 0.00 0.00 0.00 82 1022.5
20260902120059 19 196 0.0 4.8 0.00 0.00 0.00 82 1022.6
20260902115555 19 0 1.6 4.8 0.00 0.00 0.00 81 1022.6
20260902115055 19 196 0.0 4.8 0.00 0.00 0.00 81 1022.5
20260902114621 19 0 1.6 4.8 0.00 0.00 0.00 81 1022.5
20260902114054 20 0 1.6 4.8 0.00 0.00 0.00 81 1022.5
20260902113554 20 196 0.0 3.2 0.00 0.00 0.00 80 1022.4
20260902113107 20 196 0.0 6.4 0.00 0.00 0.00 81 1022.4
20260902112555 19 196 0.0 6.4 0.00 0.00 0.00 80 1022.3
20260902112055 20 0 3.2 6.4 0.00 0.00 0.00 81 1022.4
20260902111601 20 0 0.0 4.8 0.00 0.00 0.00 80 1022.3
20260902111055 20 0 1.6 4.8 0.00 0.00 0.00 80 1022.4
20260902110600 20 0 0.0 0.0 0.00 0.00 0.00 80 1022.3
20260902110107 20 0 0.0 1.6 0.00 0.00 0.00 80 1022.3
20260902105557 20 0 0.0 3.2 0.00 0.00 0.00 80 1022.3
20260902105055 20 0 1.6 8.0 0.00 0.00 0.00 80 1022.3
20260902104601 20 0 0.0 8.0 0.00 0.00 0.00 80 1022.3
20260902104056 20 186 1.6 8.0 0.00 0.00 0.00 79 1022.4
20260902103553 20 0 0.0 4.8 0.00 0.00 0.00 79 1022.4
20260902103113 20 0 0.0 9.7 0.00 0.00 0.00 79 1022.4
20260902102553 20 186 1.6 9.7 0.00 0.00 0.00 79 1022.4
20260902102055 20 175 4.8 9.7 0.00 0.00 0.00 79 1022.4
20260902101604 20 164 3.2 6.4 0.00 0.00 0.00 80 1022.3
20260902101100 20 0 0.0 6.4 0.00 0.00 0.00 80 1022.5
20260902100554 20 245 1.6 6.4 0.00 0.00 0.00 79 1022.5
20260902100126 20 245 3.2 4.8 0.00 0.00 0.00 79 1022.5
20260902095551 20 0 1.6 4.8 0.00 0.00 0.00 78 1022.5
20260902095051 20 0 1.6 3.2 0.00 0.00 0.00 78 1022.4
20260902094617 20 314 0.0 4.8 0.00 0.00 0.00 77 1022.4
20260902094055 20 0 0.0 4.8 0.00 0.00 0.00 76 1022.4
20260902093556 20 314 0.0 1.6 0.00 0.00 0.00 76 1022.4
20260902093114 20 0 0.0 4.8 0.00 0.00 0.00 74 1022.5
20260902092555 20 0 1.6 8.0 0.00 0.00 0.00 73 1022.4
20260902092055 21 191 3.2 8.0 0.00 0.00 0.00 72 1022.4
20260902091601 20 176 4.8 8.0 0.00 0.00 0.00 73 1022.4
20260902091056 20 0 0.0 0.0 0.00 0.00 0.00 75 1022.5
20260902090554 20 0 0.0 1.6 0.00 0.00 0.00 75 1022.3
20260902090104 20 0 0.0 1.6 0.00 0.00 0.00 75 1022.3
20260902085555 20 0 0.0 1.6 0.00 0.00 0.00 75 1022.4
20260902085053 21 0 0.0 1.6 0.00 0.00 0.00 74 1022.4
20260902084600 21 0 0.0 9.7 0.00 0.00 0.00 73 1022.4
20260902084058 21 0 4.8 11.3 0.00 0.00 0.00 73 1022.4
20260902083555 21 174 6.4 11.3 0.00 0.00 0.00 73 1022.5
20260902083102 21 177 8.0 11.3 0.00 0.00 0.00 73 1022.4
20260902082558 20 174 8.0 11.3 0.00 0.00 0.00 74 1022.5
20260902082055 20 172 6.4 9.7 0.00 0.00 0.00 75 1022.4
20260902081606 20 0 0.0 6.4 0.00 0.00 0.00 75 1022.4
20260902081056 20 0 3.2 6.4 0.00 0.00 0.00 75 1022.5
20260902080556 20 355 0.0 6.4 0.00 0.00 0.00 75 1022.4
20260902080108 21 0 1.6 8.0 0.00 0.00 0.00 74 1022.5
20260902075555 21 355 3.2 8.0 0.00 0.00 0.00 74 1022.5
20260902075056 21 355 4.8 6.4 0.00 0.00 0.00 72 1022.5
20260902074602 21 0 0.0 0.0 0.00 0.00 0.00 69 1022.5
20260902074059 21 0 0.0 4.8 0.00 0.00 0.00 69 1022.4
20260902073555 22 0 0.0 4.8 0.00 0.00 0.00 68 1022.4
20260902073109 22 355 1.6 4.8 0.00 0.00 0.00 68 1022.5
20260902072558 22 0 0.0 3.2 0.00 0.00 0.00 67 1022.4
20260902072055 22 0 0.0 4.8 0.00 0.00 0.00 66 1022.3
20260902071606 22 0 0.0 4.8 0.00 0.00 0.00 65 1022.3
20260902071055 23 355 1.6 4.8 0.00 0.00 0.00 64 1022.3
20260902070554 23 355 3.2 4.8 0.00 0.00 0.00 64 1022.4
20260902070107 23 355 1.6 6.4 0.00 0.00 0.00 64 1022.4
20260902065558 23 355 3.2 6.4 0.00 0.00 0.00 63 1022.4
20260902065052 23 355 3.2 6.4 0.00 0.00 0.00 63 1022.4
20260902064606 23 355 1.6 6.4 0.00 0.00 0.00 62 1022.5
20260902064055 23 355 3.2 8.0 0.00 0.00 0.00 62 1022.5
20260902063555 23 356 1.6 8.0 0.00 0.00 0.00 63 1022.4
20260902063102 23 356 3.2 9.7 0.00 0.00 0.00 63 1022.4
20260902062559 22 359 4.8 9.7 0.00 0.00 0.00 64 1022.5
20260902062051 22 1 6.4 9.7 0.00 0.00 0.00 67 1022.4
20260902061638 22 322 1.6 6.4 0.00 0.00 0.00 67 1022.4
20260902061056 22 0 1.6 4.8 0.00 0.00 0.00 67 1022.5
20260902060553 22 307 1.6 8.0 0.00 0.00 0.00 64 1022.4
20260902060103 22 307 3.2 8.0 0.00 0.00 0.00 64 1022.4
20260902055552 22 307 4.8 8.0 0.00 0.00 0.00 64 1022.4
20260902055052 22 307 4.8 8.0 0.00 0.00 0.00 64 1022.3
20260902054601 22 314 3.2 6.4 0.00 0.00 0.00 64 1022.3
20260902054055 23 314 3.2 6.4 0.00 0.00 0.00 64 1022.4
20260902053551 23 316 3.2 6.4 0.00 0.00 0.00 64 1022.4
20260902053105 23 335 3.2 6.4 0.00 0.00 0.00 63 1022.4
20260902052551 23 338 1.6 6.4 0.00 0.00 0.00 64 1022.4
20260902052056 23 339 0.0 4.8 0.00 0.00 0.00 64 1022.4
20260902051604 23 0 0.0 3.2 0.00 0.00 0.00 64 1022.5
20260902051055 23 0 0.0 3.2 0.00 0.00 0.00 64 1022.5
20260902050556 23 339 1.6 3.2 0.00 0.00 0.00 63 1022.6
20260902050104 23 0 0.0 3.2 0.00 0.00 0.00 64 1022.6
20260902045554 23 0 0.0 3.2 0.00 0.00 0.00 64 1022.6
20260902045051 23 0 0.0 3.2 0.00 0.00 0.00 63 1022.6
20260902044603 23 0 0.0 3.2 0.00 0.00 0.00 63 1022.6
20260902044053 23 0 1.6 3.2 0.00 0.00 0.00 64 1022.5
20260902043554 22 0 0.0 0.0 0.00 0.00 0.00 64 1022.5
20260902043105 22 0 0.0 0.0 0.00 0.00 0.00 65 1022.5
20260902042551 22 0 0.0 1.6 0.00 0.00 0.00 65 1022.4
20260902042056 22 0 0.0 6.4 0.00 0.00 0.00 66 1022.4
20260902041622 22 0 0.0 6.4 0.00 0.00 0.00 65 1022.3
20260902041054 22 0 0.0 6.4 0.00 0.00 0.00 65 1022.3
20260902040556 22 0 1.6 6.4 0.00 0.00 0.00 65 1022.3
20260902040107 22 0 3.2 6.4 0.00 0.00 0.00 64 1022.2
20260902035553 22 343 3.2 6.4 0.00 0.00 0.00 65 1022.1
20260902035054 22 0 0.0 3.2 0.00 0.00 0.00 67 1022.0
20260902034607 22 359 0.0 1.6 0.00 0.00 0.00 68 1021.9
20260902034054 22 0 0.0 1.6 0.00 0.00 0.00 68 1021.8
20260902033551 22 0 0.0 1.6 0.00 0.00 0.00 68 1021.8
20260902033059 22 0 0.0 3.2 0.00 0.00 0.00 68 1021.7
20260902032556 22 0 0.0 3.2 0.00 0.00 0.00 68 1021.6
20260902032055 22 0 0.0 3.2 0.00 0.00 0.00 66 1021.5
20260902031616 22 0 0.0 3.2 0.00 0.00 0.00 67 1021.4
20260902031055 23 0 0.0 4.8 0.00 0.00 0.00 65 1021.3
20260902030553 23 0 0.0 4.8 0.00 0.00 0.00 64 1021.1
20260902025554 23 0 0.0 0.0 0.00 0.00 0.00 63 1021.0
20260902025054 23 0 0.0 0.0 0.00 0.00 0.00 64 1020.9
20260902024625 23 0 0.0 0.0 0.00 0.00 0.00 61 1020.7
20260902024054 23 0 0.0 0.0 0.00 0.00 0.00 61 1020.6
20260902023555 24 0 0.0 0.0 0.00 0.00 0.00 60 1020.5
20260902023107 24 0 0.0 0.0 0.00 0.00 0.00 59 1020.5
20260902022555 23 0 0.0 6.4 0.00 0.00 0.00 58 1020.6
20260902022054 24 0 0.0 6.4 0.00 0.00 0.00 60 1020.5
20260902021607 24 359 0.0 6.4 0.00 0.00 0.00 59 1020.4
20260902021054 25 0 0.0 0.0 0.00 0.00 0.00 59 1020.4
20260902020553 25 0 0.0 3.2 0.00 0.00 0.00 56 1020.4
20260902020108 25 0 0.0 3.2 0.00 0.00 0.00 56 1020.3
20260902015553 25 359 1.6 3.2 0.00 0.00 0.00 56 1020.2
20260902015053 26 359 0.0 4.8 0.00 0.00 0.00 53 1020.1
20260902014600 26 359 1.6 4.8 0.00 0.00 0.00 51 1020.0
20260902014051 26 359 1.6 3.2 0.00 0.00 0.00 49 1020.0
20260902013557 26 359 0.0 3.2 0.00 0.00 0.00 52 1020.0
20260902013059 26 359 0.0 3.2 0.00 0.00 0.00 50 1019.9
20260902012603 27 0 0.0 3.2 0.00 0.00 0.00 50 1019.9
20260902012056 27 0 0.0 3.2 0.00 0.00 0.00 49 1020.0
20260902011608 27 359 0.0 3.2 0.00 0.00 0.00 48 1019.9
20260902011054 27 0 0.0 3.2 0.00 0.00 0.00 46 1019.9
20260902010559 28 0 0.0 1.6 0.00 0.00 0.00 44 1020.0
20260902010100 28 0 0.0 1.6 0.00 0.00 0.00 43 1019.9
20260902005555 28 0 0.0 4.8 0.00 0.00 0.00 44 1019.9
20260902005056 28 0 0.0 4.8 0.00 0.00 0.00 44 1019.9
20260902004603 28 359 1.6 4.8 0.00 0.00 0.00 43 1020.0
20260902004054 28 359 1.6 4.8 0.00 0.00 0.00 43 1019.9
20260902003556 28 0 1.6 8.0 0.00 0.00 0.00 44 1019.9
20260902003104 28 359 3.2 9.7 0.00 0.00 0.00 44 1019.9
20260902002557 28 359 4.8 11.3 0.00 0.00 0.00 42 1019.9
20260902002056 29 359 6.4 11.3 0.00 0.00 0.00 40 1019.9
20260902001612 30 354 6.4 11.3 0.00 0.00 0.00 38 1020.0
20260902001055 30 321 3.2 11.3 0.00 0.00 0.00 38 1020.0
20260902000600 30 359 6.4 12.9 0.00 0.00 0.00 40 1020.0
20260902000106 30 360 4.8 12.9 0.00 0.00 0.00 41 1020.0
20260901235556 30 345 6.4 12.9 0.00 0.00 0.00 40 1020.0
20260901235056 30 341 3.2 8.0 0.00 0.00 0.00 40 1020.1
20260901234607 30 18 3.2 11.3 0.00 0.00 0.00 42 1020.1
20260901234056 29 21 6.4 11.3 0.00 0.00 0.00 40 1020.1
20260901233557 29 1 4.8 9.7 0.00 0.00 0.00 44 1020.1
20260901233110 29 352 4.8 9.7 0.00 0.00 0.00 41 1020.2
20260901232556 30 359 3.2 9.7 0.00 0.00 0.00 39 1020.2
20260901232056 30 359 6.4 9.7 0.00 0.00 0.00 38 1020.2
20260901231611 30 32 4.8 8.0 0.00 0.00 0.00 38 1020.2
20260901231102 30 32 3.2 9.7 0.00 0.00 0.00 40 1020.2
20260901230558 31 32 4.8 9.7 0.00 0.00 0.00 35 1020.1
20260901230119 31 23 0.0 8.0 0.00 0.00 0.00 36 1020.2
20260901225554 31 81 3.2 6.4 0.00 0.08 0.00 35 1020.2
20260901225056 31 57 1.6 6.4 0.00 0.08 0.00 34 1020.2
20260901224601 30 123 3.2 11.3 0.00 0.08 0.00 34 1020.4
20260901224100 30 0 4.8 14.5 0.00 0.08 0.00 34 1020.5
20260901223556 30 125 6.4 14.5 0.00 0.08 0.00 32 1020.5
20260901223115 31 109 8.0 14.5 0.00 0.08 0.00 30 1020.5
20260901222556 30 172 3.2 16.1 0.00 0.08 0.00 30 1020.6
20260901222054 30 172 8.0 16.1 0.00 0.08 0.00 31 1020.7
20260901221607 30 201 6.4 16.1 0.00 0.08 0.00 32 1020.8
20260901221054 28 190 1.6 4.8 0.00 0.08 0.00 37 1020.9
20260901220554 28 193 1.6 8.0 0.00 0.08 0.00 36 1021.0
20260901220107 28 193 1.6 8.0 0.00 0.08 0.00 40 1021.1
20260901215553 28 193 3.2 8.0 0.00 0.08 0.00 40 1021.1
20260901215053 28 188 1.6 11.3 0.00 0.08 0.00 45 1021.2
20260901214606 28 0 4.8 11.3 0.00 0.08 0.00 45 1021.2
20260901214054 28 181 1.6 6.4 0.00 0.08 0.00 44 1021.3
20260901213553 28 5 1.6 4.8 0.00 0.08 0.00 42 1021.3
20260901213138 28 5 1.6 4.8 0.00 0.08 0.00 43 1021.4
20260901212555 28 4 1.6 6.4 0.00 0.08 0.00 42 1021.5
20260901212058 28 0 0.0 6.4 0.00 0.08 0.00 41 1021.5
20260901211603 28 4 3.2 6.4 0.00 0.08 0.00 39 1021.5
20260901211057 29 4 3.2 6.4 0.00 0.08 0.00 39 1021.5
20260901210553 29 4 3.2 6.4 0.00 0.08 0.00 38 1021.5
20260901205552 29 0 0.0 6.4 0.00 0.08 0.00 39 1021.7
20260901205052 29 0 1.6 12.9 0.00 0.08 0.00 39 1021.8
20260901204559 30 4 4.8 12.9 0.00 0.08 0.00 38 1022.0
20260901204054 30 8 6.4 12.9 0.00 0.08 0.00 40 1022.0
20260901203554 29 124 3.2 9.7 0.00 0.08 0.00 39 1022.0
20260901203121 29 30 1.6 8.0 0.00 0.08 0.00 40 1022.2
20260901202554 29 351 1.6 8.0 0.00 0.08 0.00 38 1022.2
20260901202054 29 355 3.2 11.3 0.00 0.08 0.00 41 1022.3
20260901201602 28 23 4.8 11.3 0.00 0.08 0.00 41 1022.3
20260901201053 28 25 6.4 11.3 0.00 0.08 0.00 41 1022.4
20260901200554 28 12 3.2 9.7 0.00 0.08 0.00 43 1022.5
20260901200059 28 75 1.6 9.7 0.00 0.08 0.00 43 1022.6
20260901195554 28 59 4.8 11.3 0.00 0.08 0.00 45 1022.6
20260901195054 28 36 6.4 11.3 0.00 0.08 0.00 45 1022.6
20260901194607 28 46 4.8 9.7 0.00 0.08 0.00 45 1022.6
20260901194054 28 32 4.8 9.7 0.00 0.08 0.00 45 1022.7
20260901193551 28 37 4.8 9.7 0.00 0.08 0.00 46 1022.8
20260901193106 28 35 3.2 14.5 0.00 0.08 0.00 47 1022.8
20260901192554 28 61 6.4 14.5 0.00 0.08 0.00 47 1022.9
20260901192055 28 82 4.8 11.3 0.00 0.08 0.00 46 1022.9
20260901191622 28 32 6.4 11.3 0.00 0.08 0.00 45 1022.9
20260901191054 28 38 4.8 9.7 0.00 0.08 0.00 48 1022.9
20260901190551 27 103 3.2 8.0 0.00 0.08 0.00 50 1023.0
20260901185555 27 341 3.2 11.3 0.00 0.08 0.00 47 1023.1
20260901185051 27 333 4.8 12.9 0.00 0.08 0.00 47 1023.1
20260901184606 27 360 6.4 12.9 0.00 0.08 0.00 48 1023.1
20260901184055 27 23 1.6 8.0 0.00 0.08 0.00 49 1023.2
20260901183554 27 131 1.6 12.9 0.00 0.08 0.00 48 1023.2
20260901183105 27 94 6.4 12.9 0.00 0.08 0.00 49 1023.2
20260901182555 27 97 3.2 8.0 0.00 0.08 0.00 51 1023.4
20260901182055 27 124 3.2 8.0 0.00 0.08 0.00 51 1023.5
20260901181603 26 97 3.2 9.7 0.00 0.08 0.00 52 1023.6
20260901181052 26 57 4.8 9.7 0.00 0.08 0.00 52 1023.7
20260901180554 26 0 3.2 9.7 0.00 0.08 0.00 52 1023.7
20260901180105 26 58 1.6 9.7 0.00 0.08 0.00 51 1023.7
20260901175553 26 58 3.2 9.7 0.00 0.08 0.00 52 1023.7
20260901175053 26 0 4.8 8.0 0.00 0.08 0.00 52 1023.8
20260901174607 26 82 3.2 8.0 0.00 0.08 0.00 54 1023.8
20260901174051 26 74 4.8 9.7 0.00 0.08 0.00 54 1023.9
20260901173552 26 86 4.8 9.7 0.00 0.08 0.00 59 1024.0
20260901173058 25 24 4.8 9.7 0.00 0.08 0.00 61 1023.9
20260901172552 25 28 4.8 8.0 0.00 0.08 0.00 61 1024.0
20260901172054 25 42 1.6 8.0 0.00 0.08 0.00 64 1024.0
20260901171606 24 56 0.0 8.0 0.00 0.08 0.00 65 1024.1
20260901171052 23 68 1.6 8.0 0.00 0.08 0.00 66 1024.0
20260901170555 23 56 3.2 8.0 0.00 0.08 0.00 65 1023.9
20260901170105 23 49 4.8 8.0 0.00 0.08 0.00 64 1023.9
20260901165550 23 32 3.2 8.0 0.00 0.08 0.00 68 1024.0
20260901165055 23 41 4.8 8.0 0.00 0.08 0.00 69 1023.9
20260901164605 23 19 3.2 8.0 0.00 0.08 0.00 73 1024.0
20260901164054 22 23 0.0 6.4 0.00 0.08 0.00 74 1023.9
20260901163554 22 23 3.2 6.4 0.00 0.08 0.00 73 1023.8